Lapse_Rate
6.8 6.9 6.7 6.4 6.7 6.7 6.7 6.7 6.5 6.4 6.4 6.2 6.1 6.1 6.0 5.9 5.8 5.7 5.7 5.8 5.9 5.9 5.8 5.9 5.9 5.9 5.9 5.9 5.8 5.7 5.8 5.8 5.8 5.7 5.7 5.8 5.9 5.9 5.8 5.9 5.9 5.9 5.8
6.6 7.0 7.0 6.7 6.5 6.6 6.6 6.6 6.5 6.5 6.4 6.3 6.1 6.0 5.9 5.8 5.8 5.7 5.6 5.4 5.8 5.8 5.8 5.8 5.8 6.0 6.0 5.9 5.9 5.9 5.9 5.8 5.8 5.8 5.9 5.8 5.9 5.9 5.9 6.0 6.0 5.9 6.0
6.4 6.5 6.8 6.8 6.4 6.5 6.4 6.5 6.5 6.5 6.3 6.3 6.2 6.1 5.9 5.8 5.7 5.6 5.3 5.1 5.7 5.8 5.7 5.8 5.8 5.8 6.0 6.0 5.9 5.9 6.0 5.9 6.0 6.1 6.1 6.0 5.9 5.9 5.9 5.8 5.9 5.8 5.8
6.2 6.2 6.6 6.9 6.6 6.3 6.4 6.3 6.4 6.4 6.3 6.2 6.2 6.1 6.0 6.0 5.8 5.7 5.4 5.7 5.7 5.7 5.7 5.7 5.8 5.9 6.0 6.0 6.0 6.1 6.1 6.1 6.1 6.3 6.3 6.3 6.2 6.1 5.7 6.1 5.9 5.9 6.1
6.0 6.0 6.4 6.6 6.8 6.4 6.2 6.3 6.2 6.3 6.3 6.2 6.2 5.9 6.1 6.0 5.8 5.7 5.7 5.7 5.7 5.7 5.7 5.8 5.8 5.9 5.9 6.1 6.2 6.3 6.2 6.3 6.3 6.4 6.5 6.4 6.3 6.3 6.3 6.3 6.3 6.3 6.2
6.3 5.9 6.3 6.4 6.5 6.4 6.1 6.2 6.1 6.1 6.3 6.3 5.9 6.1 6.1 5.9 5.9 6.0 5.8 5.8 5.8 5.8 5.8 5.9 6.0 6.0 6.1 6.2 6.3 6.4 6.4 6.5 6.5 6.5 6.5 6.6 6.6 6.5 6.5 6.5 6.4 6.4 6.3
6.2 5.8 6.2 6.5 6.3 6.4 6.4 6.0 6.0 5.8 6.0 6.2 6.1 6.2 6.1 6.0 5.9 6.0 5.9 5.9 5.9 5.8 5.9 6.0 6.1 6.2 6.3 6.4 6.5 6.5 6.5 6.6 6.8 6.6 6.7 6.7 6.7 6.6 6.6 6.6 6.5 6.5 6.4
6.1 6.3 5.7 6.6 6.3 6.2 6.3 5.9 5.7 5.7 5.5 5.9 6.1 6.1 6.3 6.1 6.1 6.1 6.0 5.9 6.0 5.9 5.9 6.0 6.1 6.3 6.4 6.5 6.6 6.7 6.6 6.8 6.7 6.6 6.7 6.7 6.6 6.6 6.6 6.6 6.6 6.6 6.6
6.0 6.2 6.1 6.4 6.4 6.3 6.0 5.9 5.6 5.6 5.5 6.0 6.2 6.2 6.3 6.2 6.1 6.1 6.1 6.0 6.0 6.0 6.0 6.0 6.1 6.3 6.4 6.5 6.6 6.5 6.6 6.6 6.7 6.6 6.6 6.4 6.3 6.5 6.5 6.5 6.6 6.6 6.7
6.3 6.3 6.2 6.4 6.5 6.3 6.0 5.9 5.7 5.6 5.5 5.8 6.2 6.2 6.2 6.2 6.2 6.2 6.0 6.0 6.0 6.1 6.1 6.1 6.2 6.3 6.4 6.5 6.5 6.3 6.4 6.4 6.8 6.5 6.5 6.5 6.6 6.6 6.5 6.5 6.6 6.5 6.6
7.0 6.6 6.2 6.2 6.1 6.3 6.1 5.8 5.8 5.5 5.5 5.7 6.0 6.1 5.9 6.1 6.1 6.2 6.2 6.1 6.0 6.2 6.2 6.2 6.3 6.3 6.3 6.5 6.5 6.4 6.4 6.7 6.6 6.6 6.6 6.5 6.5 6.5 6.4 6.4 6.5 6.6 6.5
7.5 6.8 6.6 6.3 6.5 6.3 5.4 5.8 5.9 6.0 5.6 5.5 5.9 6.0 6.0 6.1 6.0 6.2 6.1 6.2 6.1 6.2 6.4 6.3 6.3 6.4 6.4 6.5 6.5 6.5 6.6 6.6 6.7 6.7 6.6 6.5 6.5 6.4 6.4 6.5 6.5 6.6 6.5
7.6 7.0 6.7 6.5 6.3 6.1 4.9 5.7 5.9 6.0 5.8 5.3 5.8 5.8 6.0 6.1 6.0 6.1 6.1 6.2 6.2 6.3 6.3 6.3 6.4 6.4 6.4 6.5 6.5 6.5 6.6 6.7 6.8 6.7 6.5 6.5 6.5 6.5 6.3 6.3 6.4 6.4 6.4
7.4 7.1 6.7 6.6 6.3 6.1 5.3 5.4 5.6 5.9 5.8 5.5 5.9 5.8 6.1 6.3 6.1 6.1 6.2 6.0 6.2 6.4 6.3 6.4 6.3 6.4 6.4 6.4 6.4 6.5 6.5 6.6 6.7 6.6 6.6 6.5 6.4 6.3 6.2 6.3 6.3 6.4 6.3
7.8 7.0 6.8 6.2 5.8 5.6 5.5 5.7 5.6 5.6 5.8 5.6 5.7 6.0 6.1 6.3 6.1 6.1 6.1 6.0 6.3 6.3 6.4 6.4 6.4 6.4 6.4 6.4 6.4 6.4 6.4 6.4 6.6 6.5 6.4 6.4 6.4 6.3 6.3 6.3 6.2 6.2 6.2
7.7 7.1 6.9 6.4 5.4 4.2 5.6 5.5 4.7 5.6 5.8 6.2 6.0 6.0 6.1 6.2 6.0 6.0 6.1 6.0 6.2 6.4 6.4 6.3 6.4 6.4 6.4 6.4 6.3 6.3 6.4 6.3 6.4 6.4 6.3 6.2 6.3 6.4 6.4 6.4 6.3 6.2 6.2
7.5 7.0 6.7 6.1 5.9 4.8 4.4 5.0 4.8 4.8 5.4 6.1 5.7 5.9 6.0 6.0 6.0 5.9 5.9 6.1 6.2 6.2 6.3 6.4 6.4 6.3 6.4 6.5 6.4 6.3 6.3 6.3 6.3 6.3 6.3 6.2 6.3 6.4 6.4 6.4 6.4 6.3 6.2
7.1 6.8 6.7 5.8 5.3 5.0 4.4 4.9 4.6 4.9 5.6 5.7 5.6 5.7 5.8 6.0 5.9 5.8 5.9 6.0 6.1 6.2 6.3 6.4 6.4 6.4 6.3 6.4 6.4 6.5 6.3 6.3 6.3 6.3 6.4 6.4 6.5 6.4 6.3 6.3 6.2 6.2 6.2
6.8 6.5 6.6 6.3 5.9 5.1 4.8 4.1 4.6 5.0 5.1 5.7 5.6 5.6 5.8 5.8 5.8 5.8 5.9 6.1 6.0 6.2 6.2 6.2 6.3 6.3 6.2 6.3 6.3 6.3 6.4 6.3 6.4 6.3 6.3 6.3 6.3 6.3 6.2 6.1 6.2 6.1 6.1
7.0 6.5 6.5 6.0 4.9 5.2 4.8 3.9 3.9 5.1 5.2 5.1 5.4 5.4 5.9 6.0 5.9 5.8 6.0 6.1 6.2 6.1 6.2 6.2 6.2 6.2 6.2 6.2 6.2 6.3 6.3 6.3 6.4 6.5 6.4 6.3 6.3 6.3 6.3 6.2 6.2 6.2 6.1
7.3 6.5 6.5 5.9 6.1 6.6 5.1 3.8 4.5 4.4 5.0 5.6 5.3 5.2 5.6 5.7 5.8 5.8 5.8 6.0 6.2 6.2 6.2 6.2 6.2 6.3 6.3 6.4 6.4 6.3 6.3 6.3 6.4 6.4 6.2 6.2 6.2 6.2 6.1 6.2 6.0 6.0 6.0
7.0 6.5 6.4 6.2 6.2 6.7 5.1 4.8 5.2 4.6 4.4 4.9 5.4 5.5 5.4 5.6 5.9 6.0 5.9 6.0 6.0 6.0 6.1 6.2 6.2 6.3 6.3 6.2 6.3 6.2 6.2 6.2 6.2 6.2 6.2 6.2 6.1 5.9 5.7 5.6 5.7 6.0 5.9
6.6 5.8 6.1 5.8 6.3 6.9 5.5 4.9 4.6 4.9 4.1 4.4 4.4 5.2 5.5 5.9 5.9 5.9 5.9 5.9 5.9 5.8 6.0 6.2 6.2 6.2 6.0 6.1 6.1 6.1 6.1 6.1 5.9 6.0 6.0 6.0 6.1 6.0 5.7 5.4 5.5 5.7 5.7
6.4 6.1 5.9 5.9 6.6 6.5 6.0 4.7 4.3 4.5 4.5 5.0 4.8 4.6 5.6 6.0 6.0 5.9 5.9 5.9 6.0 6.0 5.9 5.8 5.8 5.9 6.0 5.9 5.9 6.0 5.8 5.9 5.8 5.8 6.0 5.9 5.8 5.7 5.7 5.7 5.7 5.5 5.2
6.6 5.9 6.2 5.6 5.4 6.1 6.0 5.9 5.3 4.6 5.4 4.8 4.7 4.2 4.8 5.7 6.2 5.9 5.8 6.0 6.0 5.9 5.9 5.8 5.9 6.1 5.9 5.9 6.0 5.8 5.8 5.8 5.8 5.9 5.9 5.9 5.6 5.9 6.0 5.7 5.5 5.5 5.2
6.7 6.3 5.9 6.0 6.2 6.2 6.0 5.6 5.4 4.6 4.9 4.4 4.7 4.4 4.5 5.2 5.7 5.9 5.9 5.9 5.9 5.8 5.8 5.9 5.9 6.0 5.9 5.9 5.9 6.0 5.9 5.9 5.9 5.7 5.7 5.7 5.4 5.7 5.5 5.4 5.2 5.0 4.8
Wind_Speed
3 12 17 17 17 17 18 19 17 18 18 18 18 17 17 16 17 17 17 16 16 17 17 16 15 16 13 13 13 14 13 16 16 15 15 15 14 13 9 7 10 14 12
10 11 17 18 19 18 17 20 18 17 16 17 18 19 18 17 17 17 15 16 15 17 17 16 15 16 14 13 12 13 13 15 14 14 16 15 13 11 7 11 17 12 11
11 6 21 17 18 19 17 17 21 18 18 18 18 19 19 18 17 17 15 15 15 14 14 15 15 16 14 12 11 11 13 12 10 10 10 16 13 11 11 11 12 13 16
9 5 20 19 19 20 20 19 21 20 20 20 19 20 19 19 18 17 14 14 14 13 13 13 12 14 13 12 11 12 12 9 7 8 10 15 15 14 17 20 19 20 20
8 6 17 23 20 21 20 19 21 20 22 21 19 19 20 19 18 16 15 14 14 13 12 12 12 13 12 11 11 13 11 7 4 4 10 11 16 14 18 20 19 20 19
10 6 12 25 22 21 22 20 21 21 21 21 20 20 19 18 17 16 16 15 14 13 13 13 13 13 13 12 12 15 12 8 6 9 15 19 15 16 17 18 18 17 17
9 12 12 25 23 22 23 23 22 23 21 20 20 19 17 17 17 17 16 16 15 15 14 14 14 14 14 12 14 14 9 4 2 16 17 18 18 18 17 16 15 15 14
13 7 8 23 24 22 24 25 22 22 21 21 20 19 17 17 17 16 16 16 16 16 15 14 15 16 16 14 13 11 5 3 16 17 16 17 18 16 16 15 12 10 11
14 8 10 17 24 22 25 25 24 21 21 20 20 19 17 16 16 16 15 15 16 16 16 17 17 17 16 15 14 12 11 12 16 15 16 15 17 15 13 12 12 12 13
9 9 11 8 22 23 23 23 24 21 21 20 20 19 19 17 15 15 15 15 16 15 19 18 18 17 16 15 16 18 17 9 19 17 15 14 16 14 14 14 13 13 13
6 8 8 11 13 20 22 22 22 22 22 22 20 21 21 17 16 17 15 16 15 14 19 20 19 19 16 13 14 18 13 11 16 15 13 15 16 14 14 14 14 13 13
5 1 7 9 12 12 16 20 21 20 20 19 19 22 18 16 16 16 17 15 16 13 20 21 22 18 17 14 11 11 12 13 15 15 12 15 15 14 13 12 14 12 12
7 4 3 7 6 11 12 11 13 14 16 17 20 21 18 16 15 14 14 14 14 19 16 17 18 15 15 13 12 8 11 10 14 15 13 14 15 14 14 12 13 12 15
9 6 3 5 6 9 11 7 8 8 12 9 15 21 13 9 12 13 12 14 15 14 13 15 14 12 11 12 10 12 11 11 12 14 13 13 13 13 13 13 12 14 16
9 7 3 7 9 8 12 5 8 8 7 14 14 19 15 9 10 12 12 13 14 14 15 13 12 11 11 12 12 13 11 11 15 14 13 11 12 12 12 13 12 11 11
10 8 6 6 12 5 8 10 3 8 10 13 13 14 17 14 9 7 9 9 13 14 15 14 11 9 8 12 10 13 12 11 13 16 15 13 14 12 11 12 12 11 11
8 7 6 5 6 13 5 6 4 7 10 10 12 18 17 14 13 10 9 8 9 15 16 14 13 13 7 10 10 10 11 12 12 14 14 13 12 12 10 11 10 10 10
8 10 9 6 6 10 8 6 6 6 3 9 13 15 16 14 14 12 7 8 13 13 10 7 7 7 7 7 7 6 6 9 11 11 11 12 12 11 11 9 9 9 9
12 11 9 10 11 12 13 5 6 9 6 4 14 14 16 15 15 11 7 9 14 8 7 7 7 7 7 7 7 5 5 4 7 9 9 9 7 11 11 8 9 8 7
12 11 9 6 9 10 14 6 7 7 5 9 7 10 17 16 17 12 8 9 12 8 8 7 8 8 7 8 8 7 5 4 6 5 7 8 8 6 10 11 9 7 6
8 9 12 10 10 8 10 12 7 7 2 6 2 12 14 16 17 12 6 9 9 8 9 10 8 10 7 7 7 6 4 3 4 4 7 6 8 8 7 8 7 11 7
7 8 9 9 10 8 7 5 4 8 3 2 2 4 11 13 13 11 9 9 9 7 10 10 9 7 7 8 5 5 4 3 4 5 4 4 6 8 7 7 7 6 10
6 7 7 10 8 7 6 7 5 6 5 3 2 3 6 10 11 11 11 8 8 7 7 9 10 10 7 8 9 1 3 3 7 5 5 4 6 4 7 9 9 8 6
9 6 5 4 8 6 8 9 13 8 9 6 6 5 3 8 9 7 10 8 8 6 8 8 7 7 7 8 1 1 3 1 3 4 5 5 6 7 7 8 8 8 7
11 9 7 6 7 9 9 8 9 8 5 4 6 9 8 7 9 9 9 8 7 5 7 8 8 7 5 6 4 3 2 1 2 2 3 4 3 3 4 5 6 6 8
6 7 10 9 7 11 10 8 9 7 4 5 4 6 6 5 6 7 8 7 7 6 6 6 5 5 4 4 5 4 3 2 3 1 3 6 6 5 4 3 4 5 6
Wind_Direction
188 151 181 176 173 175 168 160 160 156 158 154 159 153 151 150 148 149 150 146 146 141 135 129 128 118 119 111 97 98 95 102 99 93 89 86 82 82 88 66 117 91 88
347 160 180 186 176 180 182 166 163 161 160 158 161 161 158 157 157 159 158 159 150 138 134 129 126 124 118 118 104 99 99 104 106 107 107 92 76 72 74 53 78 95 88
346 186 176 198 182 178 184 178 163 164 165 164 164 163 159 164 154 141 141 138 133 132 135 129 120 117 122 115 115 109 105 110 126 138 157 89 87 75 80 97 94 91 89
331 250 179 188 186 183 189 187 167 171 171 165 171 170 156 147 144 138 137 135 135 141 140 139 127 122 128 130 128 125 117 125 158 178 181 119 91 86 88 91 90 85 75
323 261 189 172 192 191 190 185 177 177 180 175 167 159 152 145 140 148 142 140 140 141 140 140 140 140 140 138 137 137 126 133 210 239 77 96 100 88 83 80 81 78 76
319 270 182 168 192 200 185 193 186 181 175 167 160 155 143 142 153 149 144 141 140 142 144 146 148 148 146 144 147 144 136 170 227 97 71 72 88 97 83 76 74 72 70
318 296 173 168 190 202 191 188 184 179 174 167 156 143 144 158 155 148 145 144 147 144 145 143 144 145 145 140 127 126 141 210 100 90 93 91 94 88 82 75 71 69 70
312 266 230 176 189 203 203 187 178 179 175 166 149 143 162 165 156 150 150 150 149 149 144 145 144 145 140 130 125 122 150 302 98 103 102 91 87 83 77 72 79 78 77
313 264 247 183 198 206 202 199 175 181 174 158 145 155 165 161 153 154 154 154 154 150 155 150 144 135 132 129 120 114 102 107 114 104 97 92 87 82 82 84 89 84 86
334 290 248 227 204 206 200 201 179 176 168 154 148 157 152 148 150 155 156 157 160 152 147 143 137 137 128 127 124 119 117 125 85 91 80 88 87 84 87 88 90 89 88
316 36 15 350 230 206 200 196 178 166 159 150 144 144 146 163 167 158 169 162 157 157 144 133 135 124 119 120 130 134 136 93 91 87 88 92 91 94 88 95 97 86 92
284 37 22 29 348 249 193 193 182 166 164 156 159 161 174 167 169 178 149 166 151 165 134 131 125 135 146 136 143 171 136 118 109 100 97 99 104 96 92 89 89 88 77
255 215 348 74 12 325 212 193 175 165 162 164 168 174 187 168 153 149 155 159 158 136 129 127 131 167 154 145 165 157 143 130 114 103 107 113 109 107 99 100 88 81 83
233 243 176 58 50 340 296 172 158 171 165 169 176 176 176 164 171 162 166 170 154 155 151 149 171 165 151 155 160 144 140 135 112 108 114 113 118 112 107 105 100 86 78
215 238 220 104 70 23 352 174 157 181 174 174 175 173 175 166 181 165 165 175 149 167 167 168 161 154 160 158 152 139 136 129 123 123 114 108 113 112 110 106 99 92 89
215 220 179 146 119 86 357 4 319 187 177 185 161 172 179 174 178 180 163 175 160 171 164 163 160 159 146 151 142 144 136 129 129 128 131 92 87 97 108 106 104 100 96
199 200 194 162 123 98 69 346 315 264 174 165 154 171 178 177 178 174 170 163 168 159 166 161 158 150 152 146 143 143 145 142 135 132 136 137 107 75 95 102 102 104 100
174 200 181 166 134 108 94 46 13 338 243 164 154 158 175 173 172 175 166 165 170 158 155 149 147 147 145 145 143 139 128 136 139 137 135 141 142 132 92 99 111 113 111
168 193 178 163 145 134 100 67 40 20 16 237 149 151 165 172 170 177 171 161 162 156 151 149 152 147 146 135 133 136 141 139 139 144 149 144 135 155 133 116 103 92 104
167 188 178 151 162 135 113 124 86 36 345 270 137 144 161 169 170 172 173 165 159 160 156 155 151 149 145 140 138 135 140 145 142 163 148 157 163 147 148 150 152 122 101
151 180 185 160 174 158 162 149 145 134 239 329 90 144 162 166 174 170 169 169 164 166 156 161 150 147 144 140 128 125 125 146 170 167 163 167 160 173 158 170 183 147 143
177 177 185 172 180 172 181 161 167 151 133 308 342 150 171 163 172 167 170 169 169 168 163 156 154 149 149 157 144 147 154 174 214 195 187 185 168 182 186 190 178 177 148
194 174 187 173 174 166 152 118 105 99 117 142 201 189 179 167 174 176 170 168 172 169 168 162 162 163 161 184 171 142 156 181 153 176 198 201 197 175 198 189 199 176 182
195 165 184 161 157 155 154 147 148 168 160 170 171 159 168 172 167 175 169 168 172 162 164 169 174 173 165 178 199 207 321 2 175 161 203 204 202 200 199 190 195 186 188
196 181 178 143 175 167 167 165 162 176 163 145 165 165 168 179 168 179 166 167 165 171 170 175 172 190 168 170 186 150 197 239 348 174 155 180 198 210 212 192 191 176 189
189 177 171 179 197 172 173 159 164 183 149 163 190 160 156 166 171 174 176 166 169 170 167 167 159 164 177 179 192 191 178 181 185 180 105 151 188 177 191 188 190 183 169